Year,Month,Day,Hour,Minute,Value (Times are PST for temperature in C)
2017,01,11,09,47,-0.40
2017,01,11,09,48,-0.40
2017,01,11,09,49,-0.40
2017,01,11,09,51,-0.40
2017,01,11,09,52,-0.40
2017,01,11,09,53,-0.40
2017,01,11,09,54,-0.40
2017,01,11,09,56,-0.40
2017,01,11,09,57,-0.40
2017,01,11,09,58,-0.40
2017,01,11,09,59,-0.40
2017,01,11,10,01,-0.40
2017,01,11,10,02,-0.40
2017,01,11,10,03,-0.40
2017,01,11,10,04,-0.40
2017,01,11,10,06,-0.40
2017,01,11,10,07,-0.40
2017,01,11,10,08,-0.40
2017,01,11,10,09,-0.40
2017,01,11,10,11,-0.40
2017,01,11,10,12,-0.40
2017,01,11,10,13,-0.40
2017,01,11,10,14,-0.40
2017,01,11,10,16,-0.40
2017,01,11,10,17,-0.40
2017,01,11,10,18,-0.40
2017,01,11,10,19,-0.40
2017,01,11,10,21,-0.40
2017,01,11,10,22,-0.40
2017,01,11,10,23,-0.40
2017,01,11,10,24,-0.40
2017,01,11,10,26,-0.40
2017,01,11,10,27,-0.40
2017,01,11,10,28,-0.40
2017,01,11,10,29,-0.40
2017,01,11,10,31,-0.40
2017,01,11,10,32,-0.40
2017,01,11,10,33,-0.40
2017,01,11,10,34,-0.40
2017,01,11,10,36,-0.40
2017,01,11,10,37,-0.40
2017,01,11,10,38,-0.40
2017,01,11,10,39,-0.40
2017,01,11,10,41,-0.40
2017,01,11,10,42,-0.40
2017,01,11,10,43,-0.40
2017,01,11,10,44,-0.40
2017,01,11,10,45,-0.40
2017,01,11,10,46,-0.40
2017,01,11,10,47,-0.40
2017,01,11,10,48,-0.40
2017,01,11,10,49,-0.30
2017,01,11,10,50,-0.30
2017,01,11,10,51,-0.30
2017,01,11,10,52,-0.30
2017,01,11,10,53,-0.30
2017,01,11,10,54,-0.30
2017,01,11,10,55,-0.20
2017,01,11,10,56,-0.20
2017,01,11,10,57,-0.20
2017,01,11,10,58,-0.20
2017,01,11,10,59,-0.20
2017,01,11,11,00,-0.20
2017,01,11,11,01,-0.20
2017,01,11,11,02,-0.10
2017,01,11,11,03,-0.10
2017,01,11,11,04,-0.10
2017,01,11,11,05,-0.10
2017,01,11,11,06,-0.10
2017,01,11,11,07,-0.10
2017,01,11,11,08,-0.10
2017,01,11,11,09,-0.10
2017,01,11,11,10,-0.10
2017,01,11,11,11,-0.10
2017,01,11,11,12,-0.10
2017,01,11,11,13,-0.10
2017,01,11,11,14,-0.10
2017,01,11,11,15,0.10
2017,01,11,11,16,0.10
2017,01,11,11,17,0.10
2017,01,11,11,18,0.10
2017,01,11,11,19,0.10
2017,01,11,11,20,0.10
2017,01,11,11,21,0.10
2017,01,11,11,22,0.10
2017,01,11,11,23,0.10
2017,01,11,11,24,0.10
2017,01,11,11,25,0.10
2017,01,11,11,26,0.10
2017,01,11,11,27,0.10
2017,01,11,11,28,0.10
2017,01,11,11,29,0.10
2017,01,11,11,30,0.10
2017,01,11,11,31,0.10
2017,01,11,11,32,0.10
2017,01,11,11,33,0.20
2017,01,11,11,34,0.20
2017,01,11,11,35,0.20
2017,01,11,11,36,0.20
2017,01,11,11,37,0.20
2017,01,11,11,38,0.20
2017,01,11,11,39,0.20
2017,01,11,11,40,0.20
2017,01,11,11,41,0.30
2017,01,11,11,42,0.30
2017,01,11,11,43,0.30
2017,01,11,11,44,0.30
2017,01,11,11,45,0.30
2017,01,11,11,46,0.30
2017,01,11,11,48,0.30
2017,01,11,11,49,0.30
2017,01,11,11,51,0.30
2017,01,11,11,52,0.40
2017,01,11,11,53,0.40
2017,01,11,11,54,0.40
2017,01,11,11,56,0.40
2017,01,11,11,57,0.40
2017,01,11,11,58,0.40
2017,01,11,11,59,0.40
2017,01,11,12,01,0.40
2017,01,11,12,02,0.40
2017,01,11,12,03,0.40
2017,01,11,12,04,0.40
2017,01,11,12,06,0.40
2017,01,11,12,07,0.40
2017,01,11,12,08,0.40
2017,01,11,12,09,0.40
2017,01,11,12,11,0.40
2017,01,11,12,12,0.40
2017,01,11,12,13,0.40
2017,01,11,12,14,0.40
2017,01,11,12,16,0.40
2017,01,11,12,17,0.40
2017,01,11,12,18,0.40
2017,01,11,12,19,0.50
2017,01,11,12,21,0.50
2017,01,11,12,22,0.50
2017,01,11,12,23,0.50
2017,01,11,12,24,0.50
2017,01,11,12,26,0.60
2017,01,11,12,27,0.60
2017,01,11,12,28,0.60
2017,01,11,12,29,0.60
2017,01,11,12,31,0.60
2017,01,11,12,32,0.70
2017,01,11,12,33,0.70
2017,01,11,12,34,0.70
2017,01,11,12,36,0.70
2017,01,11,12,37,0.80
2017,01,11,12,38,0.80
2017,01,11,12,39,0.80
2017,01,11,12,41,0.80
2017,01,11,12,42,0.80
2017,01,11,12,43,0.80
2017,01,11,12,44,0.80
2017,01,11,12,46,0.80
2017,01,11,12,47,0.80
2017,01,11,12,48,0.80
2017,01,11,12,49,0.80
2017,01,11,12,51,0.80
2017,01,11,12,52,0.80
2017,01,11,12,53,0.80
2017,01,11,12,54,0.80
2017,01,11,12,56,0.80
2017,01,11,12,57,0.80
2017,01,11,12,58,0.80
2017,01,11,12,59,0.80
2017,01,11,13,01,0.90
2017,01,11,13,02,0.90
2017,01,11,13,03,0.90
2017,01,11,13,04,0.90
2017,01,11,13,06,0.90
2017,01,11,13,07,0.90
2017,01,11,13,08,1.00
2017,01,11,13,09,1.00
2017,01,11,13,11,1.00
2017,01,11,13,12,1.00
2017,01,11,13,13,1.00
2017,01,11,13,14,1.00
2017,01,11,13,15,1.00
2017,01,11,13,16,1.10
2017,01,11,13,17,1.10
2017,01,11,13,18,1.20
2017,01,11,13,19,1.20
2017,01,11,13,20,1.20
2017,01,11,13,21,1.30
2017,01,11,13,22,1.30
2017,01,11,13,23,1.30
2017,01,11,13,24,1.30
2017,01,11,13,25,1.40
2017,01,11,13,26,1.40
2017,01,11,13,27,1.40
2017,01,11,13,28,1.40
2017,01,11,13,29,1.50
2017,01,11,13,30,1.50
2017,01,11,13,31,1.50
2017,01,11,13,32,1.60
2017,01,11,13,33,1.60
2017,01,11,13,34,1.60
2017,01,11,13,35,1.50
2017,01,11,13,36,1.50
2017,01,11,13,37,1.50
2017,01,11,13,38,1.50
2017,01,11,13,39,1.50
2017,01,11,13,40,1.40
2017,01,11,13,41,1.40
2017,01,11,13,42,1.40
2017,01,11,13,43,1.40
2017,01,11,13,44,1.30
2017,01,11,13,45,1.40
2017,01,11,13,50,1.40
2017,01,11,14,07,1.30
2017,01,11,14,08,1.30
2017,01,11,14,09,1.30
2017,01,11,14,10,1.30
2017,01,11,14,11,1.30
2017,01,11,14,12,1.30
2017,01,11,14,13,1.30
2017,01,11,14,14,1.30
2017,01,11,14,15,1.30
2017,01,11,14,16,1.40
2017,01,11,14,17,1.40
2017,01,11,14,18,1.40
2017,01,11,14,19,1.50
2017,01,11,14,20,1.50
2017,01,11,14,21,1.50
2017,01,11,14,22,1.50
2017,01,11,14,23,1.50
2017,01,11,14,24,1.50
2017,01,11,14,25,1.50
2017,01,11,14,26,1.50
2017,01,11,14,27,1.40
2017,01,11,14,28,1.40
2017,01,11,14,29,1.30
2017,01,11,14,30,1.30
2017,01,11,14,31,1.30
2017,01,11,14,32,1.30
2017,01,11,14,33,1.30
2017,01,11,14,34,1.30
2017,01,11,14,35,1.30
2017,01,11,14,36,1.30
2017,01,11,14,37,1.30
2017,01,11,14,38,1.30
2017,01,11,14,39,1.30
2017,01,11,14,40,1.30
2017,01,11,14,41,1.40
2017,01,11,14,42,1.40
2017,01,11,14,43,1.40
2017,01,11,14,44,1.40
2017,01,11,14,45,1.40
2017,01,11,14,46,1.40
2017,01,11,14,47,1.40
2017,01,11,14,48,1.50
2017,01,11,14,49,1.50
2017,01,11,14,51,1.50
2017,01,11,14,52,1.50
2017,01,11,14,53,1.50
2017,01,11,14,54,1.50
2017,01,11,14,56,1.50
2017,01,11,14,57,1.50
2017,01,11,14,58,1.50
2017,01,11,14,59,1.50
2017,01,11,15,01,1.50
2017,01,11,15,02,1.50
2017,01,11,15,03,1.50
2017,01,11,15,04,1.60
2017,01,11,15,06,1.60
2017,01,11,15,07,1.60
2017,01,11,15,08,1.60
2017,01,11,15,09,1.60
2017,01,11,15,11,1.60
2017,01,11,15,12,1.60
2017,01,11,15,13,1.60
2017,01,11,15,14,1.60
2017,01,11,15,16,1.60
2017,01,11,15,17,1.50
2017,01,11,15,18,1.50
2017,01,11,15,19,1.50
2017,01,11,15,21,1.60
2017,01,11,15,22,1.60
2017,01,11,15,23,1.60
2017,01,11,15,24,1.60
2017,01,11,15,26,1.60
2017,01,11,15,27,1.60
2017,01,11,15,28,1.60
2017,01,11,15,29,1.60
2017,01,11,15,31,1.60
2017,01,11,15,32,1.60
2017,01,11,15,33,1.60
2017,01,11,15,34,1.60
2017,01,11,15,36,1.60
2017,01,11,15,37,1.60
2017,01,11,15,38,1.70
2017,01,11,15,39,1.70
2017,01,11,15,41,1.70
2017,01,11,15,42,1.70
2017,01,11,15,43,1.70
2017,01,11,15,44,1.70
2017,01,11,15,46,1.70
2017,01,11,15,47,1.70
2017,01,11,15,48,1.60
2017,01,11,15,49,1.60
2017,01,11,15,51,1.60
2017,01,11,15,52,1.60
2017,01,11,15,53,1.60
2017,01,11,15,54,1.60
2017,01,11,15,56,1.50
2017,01,11,15,57,1.50
2017,01,11,15,58,1.50
2017,01,11,15,59,1.50
2017,01,11,16,01,1.40
2017,01,11,16,02,1.40
2017,01,11,16,03,1.30
2017,01,11,16,04,1.30
2017,01,11,16,06,1.30
2017,01,11,16,07,1.30
2017,01,11,16,08,1.30
2017,01,11,16,09,1.20
2017,01,11,16,11,1.20
2017,01,11,16,12,1.20
2017,01,11,16,13,1.20
2017,01,11,16,14,1.20
2017,01,11,16,15,1.20
2017,01,11,16,16,1.20
2017,01,11,16,17,1.20
2017,01,11,16,18,1.20
2017,01,11,16,19,1.20
2017,01,11,16,20,1.30
2017,01,11,16,21,1.30
2017,01,11,16,22,1.30
2017,01,11,16,23,1.30
2017,01,11,16,24,1.30
2017,01,11,16,25,1.30
2017,01,11,16,26,1.30
2017,01,11,16,27,1.30
2017,01,11,16,28,1.20
2017,01,11,16,29,1.20
2017,01,11,16,30,1.10
2017,01,11,16,31,1.10
2017,01,11,16,32,1.00
2017,01,11,16,33,1.00
2017,01,11,16,34,1.00
2017,01,11,16,35,1.00
2017,01,11,16,36,1.00
2017,01,11,16,37,1.00
2017,01,11,16,38,1.00
2017,01,11,16,39,1.00
2017,01,11,16,40,1.00
2017,01,11,16,41,1.00
2017,01,11,16,42,0.90
2017,01,11,16,43,0.90
2017,01,11,16,44,0.80
2017,01,11,16,45,0.80
2017,01,11,16,46,0.80
2017,01,11,16,47,0.70
2017,01,11,16,48,0.60
2017,01,11,16,49,0.60
2017,01,11,16,50,0.50
2017,01,11,16,51,0.50
2017,01,11,16,52,0.40
2017,01,11,16,53,0.40
2017,01,11,16,54,0.30
2017,01,11,16,55,0.20
2017,01,11,16,56,0.20
2017,01,11,16,57,0.10
2017,01,11,16,58,0.10
2017,01,11,16,59,0.10
2017,01,11,17,00,0.10
2017,01,11,17,01,0.10
2017,01,11,17,02,0.10
2017,01,11,17,03,0.10
2017,01,11,17,04,-0.10
2017,01,11,17,05,-0.10
2017,01,11,17,06,-0.10
2017,01,11,17,07,-0.10
2017,01,11,17,08,-0.10
2017,01,11,17,09,-0.20
2017,01,11,17,10,-0.20
2017,01,11,17,11,-0.30
2017,01,11,17,12,-0.30
2017,01,11,17,13,-0.30
2017,01,11,17,14,-0.40
2017,01,11,17,15,-0.40
2017,01,11,17,16,-0.40
2017,01,11,17,17,-0.40
2017,01,11,17,18,-0.40
2017,01,11,17,19,-0.40
2017,01,11,17,20,-0.60
2017,01,11,17,21,-0.60
2017,01,11,17,22,-0.60
2017,01,11,17,23,-0.60
2017,01,11,17,24,-0.60
2017,01,11,17,25,-0.70
2017,01,11,17,26,-0.70
2017,01,11,17,27,-0.70
2017,01,11,17,28,-0.70
2017,01,11,17,29,-0.80
2017,01,11,17,31,-0.80
2017,01,11,17,32,-0.80
2017,01,11,17,33,-0.90
2017,01,11,17,34,-0.90
2017,01,11,17,36,-0.90
2017,01,11,17,37,-0.90
2017,01,11,17,38,-0.90
2017,01,11,17,39,-0.90
2017,01,11,17,41,-0.90
2017,01,11,17,42,-0.90
2017,01,11,17,43,-0.90
2017,01,11,17,44,-0.90
2017,01,11,17,46,-1.10
2017,01,11,17,47,-1.10
2017,01,11,17,48,-1.10
2017,01,11,17,49,-1.10
2017,01,11,17,51,-1.10
2017,01,11,17,52,-1.10
2017,01,11,17,53,-1.10
2017,01,11,17,54,-1.20
2017,01,11,17,56,-1.10
2017,01,11,17,57,-1.10
2017,01,11,17,58,-1.10
2017,01,11,17,59,-1.10
2017,01,11,18,01,-0.90
2017,01,11,18,02,-0.90
2017,01,11,18,03,-0.80
2017,01,11,18,04,-0.70
2017,01,11,18,06,-0.40
2017,01,11,18,07,-0.30
2017,01,11,18,08,-0.10
2017,01,11,18,09,-0.10
2017,01,11,18,11,0.10
2017,01,11,18,12,0.30
2017,01,11,18,13,0.40
2017,01,11,18,14,0.40
2017,01,11,18,16,0.60
2017,01,11,18,17,0.70
2017,01,11,18,18,0.80
2017,01,11,18,19,0.80
2017,01,11,18,21,0.80
2017,01,11,18,22,0.90
2017,01,11,18,23,0.90
2017,01,11,18,24,0.90
2017,01,11,18,26,0.90
2017,01,11,18,27,0.90
2017,01,11,18,28,0.90
2017,01,11,18,29,0.90
2017,01,11,18,31,0.90
2017,01,11,18,32,0.90
2017,01,11,18,33,0.90
2017,01,11,18,34,0.90
2017,01,11,18,36,0.90
2017,01,11,18,37,0.90
2017,01,11,18,38,0.90
2017,01,11,18,39,0.90
2017,01,11,18,41,0.90
2017,01,11,18,42,0.90
2017,01,11,18,43,0.90
2017,01,11,18,44,1.00
2017,01,11,18,46,1.00
2017,01,11,18,47,1.00
2017,01,11,18,48,1.00
2017,01,11,18,49,1.00
2017,01,11,18,51,1.00
2017,01,11,18,52,1.00
2017,01,11,18,53,1.00
2017,01,11,18,54,1.00
2017,01,11,18,55,1.00
2017,01,11,18,56,1.00
2017,01,11,18,57,1.00
2017,01,11,18,58,1.00
2017,01,11,18,59,1.00
2017,01,11,19,00,1.00
2017,01,11,19,01,1.10
2017,01,11,19,02,1.10
2017,01,11,19,03,1.10
2017,01,11,19,04,1.10
2017,01,11,19,05,1.10
2017,01,11,19,06,1.10
2017,01,11,19,07,1.10
2017,01,11,19,08,1.10
2017,01,11,19,09,1.10
2017,01,11,19,10,1.10
2017,01,11,19,11,1.10
2017,01,11,19,12,1.10
2017,01,11,19,13,1.10
2017,01,11,19,14,1.10
2017,01,11,19,15,1.10
2017,01,11,19,16,1.00
2017,01,11,19,17,1.00
2017,01,11,19,18,1.00
2017,01,11,19,19,1.00
2017,01,11,19,20,1.00
2017,01,11,19,21,0.90
2017,01,11,19,22,0.90
2017,01,11,19,23,0.90
2017,01,11,19,24,0.80
2017,01,11,19,25,0.80
2017,01,11,19,26,0.80
2017,01,11,19,27,0.80
2017,01,11,19,28,0.80
2017,01,11,19,29,0.80
2017,01,11,19,30,0.80
2017,01,11,19,31,0.70
2017,01,11,19,32,0.70
2017,01,11,19,33,0.70
2017,01,11,19,34,0.70
2017,01,11,19,35,0.70
2017,01,11,19,36,0.70
2017,01,11,19,37,0.60
2017,01,11,19,38,0.60
2017,01,11,19,39,0.60
2017,01,11,19,40,0.60
2017,01,11,19,41,0.60
2017,01,11,19,42,0.60
2017,01,11,19,43,0.60
2017,01,11,19,44,0.60
2017,01,11,19,45,0.60
2017,01,11,19,46,0.60
2017,01,11,19,47,0.60
2017,01,11,19,48,0.60
2017,01,11,19,49,0.60
2017,01,11,19,50,0.60
2017,01,11,19,51,0.60
2017,01,11,19,52,0.60
2017,01,11,19,53,0.60
2017,01,11,19,54,0.60
2017,01,11,19,55,0.60
2017,01,11,19,56,0.60
2017,01,11,19,57,0.60
2017,01,11,19,58,0.60
2017,01,11,19,59,0.60
2017,01,11,20,00,0.60
2017,01,11,20,01,0.60
2017,01,11,20,02,0.70
2017,01,11,20,03,0.70
2017,01,11,20,04,0.70
2017,01,11,20,05,0.70
2017,01,11,20,06,0.70
2017,01,11,20,07,0.80
2017,01,11,20,08,0.80
2017,01,11,20,09,0.80
2017,01,11,20,10,0.80
2017,01,11,20,11,0.80
2017,01,11,20,12,0.80
2017,01,11,20,14,0.80
2017,01,11,20,16,0.80
2017,01,11,20,17,0.80
2017,01,11,20,18,0.80
2017,01,11,20,19,0.80
2017,01,11,20,21,0.80
2017,01,11,20,22,0.80
2017,01,11,20,23,0.80
2017,01,11,20,24,0.80
2017,01,11,20,26,0.80
2017,01,11,20,27,0.80
2017,01,11,20,28,0.80
2017,01,11,20,29,0.80
2017,01,11,20,31,0.90
2017,01,11,20,32,0.90
2017,01,11,20,33,0.90
2017,01,11,20,34,0.90
2017,01,11,20,36,1.00
2017,01,11,20,37,1.00
2017,01,11,20,38,1.00
2017,01,11,20,39,1.10
2017,01,11,20,41,1.10
2017,01,11,20,42,1.20
2017,01,11,20,43,1.20
2017,01,11,20,44,1.20
2017,01,11,20,46,1.20
2017,01,11,20,47,1.20
2017,01,11,20,48,1.20
2017,01,11,20,49,1.20
2017,01,11,20,51,1.20
2017,01,11,20,52,1.20
2017,01,11,20,53,1.20
2017,01,11,20,54,1.20
2017,01,11,20,56,1.20
2017,01,11,20,57,1.20
2017,01,11,20,58,1.20
2017,01,11,20,59,1.20
2017,01,11,21,01,1.20
2017,01,11,21,02,1.20
2017,01,11,21,03,1.20
2017,01,11,21,04,1.20
2017,01,11,21,06,1.20
2017,01,11,21,07,1.20
2017,01,11,21,08,1.20
2017,01,11,21,09,1.20
2017,01,11,21,11,1.20
2017,01,11,21,12,1.20
2017,01,11,21,13,1.20
2017,01,11,21,14,1.20
2017,01,11,21,16,1.20
2017,01,11,21,17,1.20
2017,01,11,21,18,1.20
2017,01,11,21,19,1.20
2017,01,11,21,21,1.20
2017,01,11,21,22,1.20
2017,01,11,21,23,1.20
2017,01,11,21,24,1.20
2017,01,11,21,25,1.20
2017,01,11,21,26,1.20
2017,01,11,21,27,1.20
2017,01,11,21,28,1.20
2017,01,11,21,29,1.20
2017,01,11,21,31,1.20
2017,01,11,21,32,1.20
2017,01,11,21,33,1.20
2017,01,11,21,34,1.10
2017,01,11,21,35,1.10
2017,01,11,21,36,1.10
2017,01,11,21,37,1.10
2017,01,11,21,38,1.10
2017,01,11,21,39,1.10
2017,01,11,21,40,1.10
2017,01,11,21,41,1.10
2017,01,11,21,42,1.10
2017,01,11,21,43,1.10
2017,01,11,21,44,1.10
2017,01,11,21,45,1.10
2017,01,11,21,46,1.20
2017,01,11,21,47,1.20
2017,01,11,21,48,1.10
2017,01,11,21,49,1.10
2017,01,11,21,50,1.10
2017,01,11,21,51,1.10
2017,01,11,21,52,1.10
2017,01,11,21,53,1.10
2017,01,11,21,54,1.10
2017,01,11,21,55,1.00
2017,01,11,21,56,1.00
2017,01,11,21,57,1.00
2017,01,11,21,58,1.00
2017,01,11,21,59,1.00
2017,01,11,22,00,1.00
2017,01,11,22,01,1.00
2017,01,11,22,02,1.00
2017,01,11,22,03,1.00
2017,01,11,22,04,1.00
2017,01,11,22,05,0.90
2017,01,11,22,06,0.90
2017,01,11,22,07,0.90
2017,01,11,22,08,0.90
2017,01,11,22,09,0.90
2017,01,11,22,10,0.90
2017,01,11,22,11,0.90
2017,01,11,22,12,0.90
2017,01,11,22,13,0.90
2017,01,11,22,14,0.90
2017,01,11,22,15,0.90
2017,01,11,22,16,0.90
2017,01,11,22,17,0.80
2017,01,11,22,18,0.80
2017,01,11,22,19,0.80
2017,01,11,22,20,0.80
2017,01,11,22,21,0.80
2017,01,11,22,22,0.80
2017,01,11,22,23,0.80
2017,01,11,22,24,0.80
2017,01,11,22,25,0.80
2017,01,11,22,26,0.80
2017,01,11,22,27,0.80
2017,01,11,22,28,0.80
2017,01,11,22,29,0.80
2017,01,11,22,30,0.80
2017,01,11,22,31,0.80
2017,01,11,22,32,0.80
2017,01,11,22,33,0.80
2017,01,11,22,34,0.80
2017,01,11,22,35,0.80
2017,01,11,22,36,0.80
2017,01,11,22,37,0.70
2017,01,11,22,38,0.70
2017,01,11,22,39,0.70
2017,01,11,22,40,0.70
2017,01,11,22,41,0.60
2017,01,11,22,42,0.60
2017,01,11,22,43,0.60
2017,01,11,22,44,0.60
2017,01,11,22,46,0.50
2017,01,11,22,47,0.50
2017,01,11,22,48,0.40
2017,01,11,22,49,0.40
2017,01,11,22,51,0.40
2017,01,11,22,52,0.30
2017,01,11,22,53,0.30
2017,01,11,22,54,0.20
2017,01,11,22,56,0.10
2017,01,11,22,57,-0.10
2017,01,11,22,58,-0.10
2017,01,11,22,59,-0.10
2017,01,11,23,01,-0.30
2017,01,11,23,02,-0.30
2017,01,11,23,03,-0.40
2017,01,11,23,04,-0.40
2017,01,11,23,06,-0.40
2017,01,11,23,07,-0.60
2017,01,11,23,08,-0.60
2017,01,11,23,09,-0.60
2017,01,11,23,11,-0.70
2017,01,11,23,12,-0.70
2017,01,11,23,13,-0.70
2017,01,11,23,14,-0.80
2017,01,11,23,16,-0.80
2017,01,11,23,17,-0.80
2017,01,11,23,18,-0.80
2017,01,11,23,19,-0.80
2017,01,11,23,21,-0.70
2017,01,11,23,22,-0.70
2017,01,11,23,23,-0.60
2017,01,11,23,24,-0.60
2017,01,11,23,26,-0.40
2017,01,11,23,27,-0.30
2017,01,11,23,28,-0.20
2017,01,11,23,29,-0.10
2017,01,11,23,31,-0.10
2017,01,11,23,32,0.10
2017,01,11,23,33,0.20
2017,01,11,23,34,0.30
2017,01,11,23,36,0.40
2017,01,11,23,37,0.40
2017,01,11,23,38,0.50
2017,01,11,23,39,0.60
2017,01,11,23,41,0.70
2017,01,11,23,42,0.80
2017,01,11,23,43,0.80
2017,01,11,23,44,0.80
2017,01,11,23,46,0.80
2017,01,11,23,47,0.90
2017,01,11,23,48,0.90
2017,01,11,23,49,0.90
2017,01,11,23,51,0.90
2017,01,11,23,52,0.90
2017,01,11,23,53,0.90
2017,01,11,23,54,0.90
2017,01,11,23,55,0.90
2017,01,11,23,56,0.90
2017,01,11,23,57,0.90
2017,01,11,23,58,0.90
2017,01,11,23,59,0.90
